Location: Holcomb Observatory
(44.4922°N, 73.1654°W)
Time: 10:54:07
(UTC-05:00)

Cosmos 2360 Rocket - Visible Passes

Search period start: 20 February 2017 00:00
Search period end: 02 March 2017 00:00
Orbit: 834 x 845 km, 71.0° (Epoch: 20 February)

Date Brightness Start Highest point End Pass type
(mag) Time Alt. Az. Time Alt. Az. Time Alt. Az.
20 Feb 2.1 19:24:12 10° NNW 19:29:54 87° ENE 19:32:44 31° SSE visible
20 Feb 4.7 21:10:22 10° WNW 21:13:03 14° W 21:14:35 12° WSW visible
21 Feb 2.1 19:08:32 10° NNW 19:14:13 83° ENE 19:18:45 16° SSE visible
21 Feb 4.8 20:54:26 10° WNW 20:57:26 15° W 21:00:26 10° SW visible
22 Feb 2.1 18:52:51 10° NNW 18:58:33 78° ENE 19:04:12 10° SSE visible
22 Feb 4.8 20:38:33 10° WNW 20:41:49 16° W 20:45:04 10° SW visible
23 Feb 2.1 18:37:11 10° NNW 18:42:52 74° ENE 18:48:31 10° SSE visible
23 Feb 4.8 20:22:41 10° WNW 20:26:11 17° W 20:29:41 10° SW visible
24 Feb 2.2 18:21:31 10° NNW 18:27:11 70° ENE 18:32:50 10° SSE visible
24 Feb 4.7 20:06:51 10° WNW 20:10:33 18° W 20:14:16 10° SW visible
25 Feb 2.2 18:05:51 10° NNW 18:11:31 66° ENE 18:17:07 10° SE visible
25 Feb 4.7 19:51:02 10° NW 19:54:56 19° W 19:58:49 10° SW visible
26 Feb 4.7 19:35:14 10° NW 19:39:19 21° W 19:43:22 10° SSW visible
27 Feb 4.7 19:19:26 10° NW 19:23:40 22° W 19:27:54 10° SSW visible
28 Feb 4.7 19:03:40 10° NW 19:08:02 23° WSW 19:12:25 10° SSW visible
01 Mar 4.6 18:47:53 10° NW 18:52:24 25° WSW 18:56:55 10° SSW visible
